Time,TemperatureF,DewpointF,PressureIn,WindDirection,WindDirectionDegrees,WindSpeedMPH,WindSpeedGustMPH,Humidity,HourlyPrecipIn,Conditions,Clouds,dailyrainin,SoftwareType,DateUTC
2013-04-04 00:00:00,30.0,19.0,30.33,ESE,113,0.0,3.0,63,0.00,,,0.00,VWS V14.01,2013-04-04 04:00:00,
2013-04-04 00:05:00,29.9,19.2,30.33,ESE,113,0.0,0.0,64,0.00,,,0.00,VWS V14.01,2013-04-04 04:05:00,
2013-04-04 00:10:00,29.8,19.1,30.33,ESE,113,0.0,0.0,64,0.00,,,0.00,VWS V14.01,2013-04-04 04:10:00,
2013-04-04 00:15:00,29.7,19.0,30.33,ESE,113,0.0,1.0,64,0.00,,,0.00,VWS V14.01,2013-04-04 04:15:00,
2013-04-04 00:20:00,29.6,18.9,30.32,ESE,113,0.0,2.0,64,0.00,,,0.00,VWS V14.01,2013-04-04 04:20:00,
2013-04-04 00:25:00,29.5,18.8,30.33,ESE,113,0.0,4.0,64,0.00,,,0.00,VWS V14.01,2013-04-04 04:25:00,
2013-04-04 00:30:00,29.5,18.8,30.32,ESE,113,0.0,4.0,64,0.00,,,0.00,VWS V14.01,2013-04-04 04:30:00,
2013-04-04 00:35:00,29.5,18.8,30.32,ESE,113,0.0,4.0,64,0.00,,,0.00,VWS V14.01,2013-04-04 04:35:00,
2013-04-04 00:40:00,29.4,18.7,30.33,ESE,113,0.0,4.0,64,0.00,,,0.00,VWS V14.01,2013-04-04 04:40:00,
2013-04-04 00:45:00,29.4,18.7,30.33,ESE,113,0.0,4.0,64,0.00,,,0.00,VWS V14.01,2013-04-04 04:45:00,
2013-04-04 00:50:00,29.4,18.7,30.33,ESE,114,0.0,4.0,64,0.00,,,0.00,VWS V14.01,2013-04-04 04:50:00,
2013-04-04 00:55:00,29.4,18.4,30.32,ESE,113,1.0,4.0,63,0.00,,,0.00,VWS V14.01,2013-04-04 04:55:00,
2013-04-04 01:00:00,29.4,18.4,30.32,ESE,113,2.0,4.0,63,0.00,,,0.00,VWS V14.01,2013-04-04 05:00:00,
2013-04-04 01:05:00,29.3,18.3,30.32,ESE,113,0.0,2.0,63,0.00,,,0.00,VWS V14.01,2013-04-04 05:05:00,
2013-04-04 01:10:00,29.3,18.3,30.32,ESE,114,0.0,2.0,63,0.00,,,0.00,VWS V14.01,2013-04-04 05:10:00,
2013-04-04 01:15:00,29.2,18.2,30.32,ESE,113,0.0,2.0,63,0.00,,,0.00,VWS V14.01,2013-04-04 05:15:00,
2013-04-04 01:20:00,29.1,18.1,30.32,ESE,113,0.0,2.0,63,0.00,,,0.00,VWS V14.01,2013-04-04 05:20:00,
2013-04-04 01:25:00,29.0,18.0,30.32,ESE,113,0.0,2.0,63,0.00,,,0.00,VWS V14.01,2013-04-04 05:25:00,
2013-04-04 01:30:00,29.0,17.6,30.32,ESE,113,0.0,2.0,62,0.00,,,0.00,VWS V14.01,2013-04-04 05:30:00,
2013-04-04 01:35:00,28.9,17.5,30.32,ESE,114,0.0,2.0,62,0.00,,,0.00,VWS V14.01,2013-04-04 05:35:00,
2013-04-04 01:40:00,28.8,17.4,30.32,ESE,113,0.0,2.0,62,0.00,,,0.00,VWS V14.01,2013-04-04 05:40:00,
2013-04-04 01:45:00,28.7,17.7,30.32,ESE,113,0.0,2.0,63,0.00,,,0.00,VWS V14.01,2013-04-04 05:45:00,
2013-04-04 01:50:00,28.6,17.6,30.32,ESE,113,0.0,2.0,63,0.00,,,0.00,VWS V14.01,2013-04-04 05:50:00,
2013-04-04 01:55:00,28.5,17.5,30.32,ESE,113,0.0,2.0,63,0.00,,,0.00,VWS V14.01,2013-04-04 05:55:00,
2013-04-04 02:00:00,28.6,17.6,30.32,ESE,113,0.0,2.0,63,0.00,,,0.00,VWS V14.01,2013-04-04 06:00:00,
2013-04-04 02:05:00,28.5,17.5,30.31,ESE,113,0.0,0.0,63,0.00,,,0.00,VWS V14.01,2013-04-04 06:05:00,
2013-04-04 02:10:00,28.5,17.5,30.31,ESE,113,0.0,1.0,63,0.00,,,0.00,VWS V14.01,2013-04-04 06:10:00,
2013-04-04 02:15:00,28.3,17.3,30.31,ESE,113,0.0,1.0,63,0.00,,,0.00,VWS V14.01,2013-04-04 06:15:00,
2013-04-04 02:20:00,28.1,17.5,30.31,ESE,113,0.0,1.0,64,0.00,,,0.00,VWS V14.01,2013-04-04 06:20:00,
2013-04-04 02:25:00,27.9,17.3,30.31,ESE,113,0.0,1.0,64,0.00,,,0.00,VWS V14.01,2013-04-04 06:25:00,
2013-04-04 02:30:00,27.7,17.5,30.30,ESE,113,0.0,1.0,65,0.00,,,0.00,VWS V14.01,2013-04-04 06:30:00,
2013-04-04 02:35:00,27.5,17.3,30.30,ESE,113,0.0,1.0,65,0.00,,,0.00,VWS V14.01,2013-04-04 06:35:00,
2013-04-04 02:40:00,27.4,17.2,30.30,ESE,113,0.0,1.0,65,0.00,,,0.00,VWS V14.01,2013-04-04 06:40:00,
2013-04-04 02:45:00,27.2,17.4,30.31,ESE,113,0.0,1.0,66,0.00,,,0.00,VWS V14.01,2013-04-04 06:45:00,
2013-04-04 02:50:00,26.9,17.1,30.30,ESE,113,0.0,1.0,66,0.00,,,0.00,VWS V14.01,2013-04-04 06:50:00,
2013-04-04 02:55:00,26.7,17.6,30.30,ESE,113,0.0,1.0,68,0.00,,,0.00,VWS V14.01,2013-04-04 06:55:00,
2013-04-04 03:00:00,26.6,17.8,30.30,ESE,113,0.0,1.0,69,0.00,,,0.00,VWS V14.01,2013-04-04 07:00:00,
2013-04-04 03:05:00,26.7,17.9,30.30,ESE,113,0.0,1.0,69,0.00,,,0.00,VWS V14.01,2013-04-04 07:05:00,
2013-04-04 03:10:00,26.7,17.9,30.29,ESE,113,0.0,1.0,69,0.00,,,0.00,VWS V14.01,2013-04-04 07:10:00,
2013-04-04 03:15:00,26.9,17.8,30.29,ESE,113,0.0,2.0,68,0.00,,,0.00,VWS V14.01,2013-04-04 07:15:00,
2013-04-04 03:20:00,27.0,17.9,30.29,ESE,113,1.0,3.0,68,0.00,,,0.00,VWS V14.01,2013-04-04 07:20:00,
2013-04-04 03:25:00,27.0,17.5,30.29,ESE,113,0.0,4.0,67,0.00,,,0.00,VWS V14.01,2013-04-04 07:25:00,
2013-04-04 03:30:00,27.2,17.7,30.29,ESE,113,0.0,4.0,67,0.00,,,0.00,VWS V14.01,2013-04-04 07:30:00,
2013-04-04 03:35:00,27.3,17.8,30.29,ESE,113,0.0,4.0,67,0.00,,,0.00,VWS V14.01,2013-04-04 07:35:00,
2013-04-04 03:40:00,27.3,17.5,30.29,ESE,113,0.0,4.0,66,0.00,,,0.00,VWS V14.01,2013-04-04 07:40:00,
2013-04-04 03:45:00,27.3,17.5,30.28,ESE,113,0.0,4.0,66,0.00,,,0.00,VWS V14.01,2013-04-04 07:45:00,
2013-04-04 03:50:00,27.3,17.5,30.29,ESE,113,0.0,4.0,66,0.00,,,0.00,VWS V14.01,2013-04-04 07:50:00,
2013-04-04 03:55:00,27.5,17.3,30.29,ESE,113,0.0,4.0,65,0.00,,,0.00,VWS V14.01,2013-04-04 07:55:00,
2013-04-04 04:00:00,27.5,17.3,30.29,ESE,113,1.0,1.0,65,0.00,,,0.00,VWS V14.01,2013-04-04 08:00:00,
2013-04-04 04:05:00,27.5,17.3,30.29,ESE,113,2.0,2.0,65,0.00,,,0.00,VWS V14.01,2013-04-04 08:05:00,
2013-04-04 04:10:00,27.4,17.2,30.29,ESE,113,0.0,2.0,65,0.00,,,0.00,VWS V14.01,2013-04-04 08:10:00,
2013-04-04 04:15:00,27.3,17.1,30.29,ESE,113,0.0,2.0,65,0.00,,,0.00,VWS V14.01,2013-04-04 08:15:00,
2013-04-04 04:20:00,27.2,17.0,30.29,ESE,113,0.0,2.0,65,0.00,,,0.00,VWS V14.01,2013-04-04 08:20:00,
2013-04-04 04:25:00,27.1,17.3,30.28,ESE,113,0.0,2.0,66,0.00,,,0.00,VWS V14.01,2013-04-04 08:25:00,
2013-04-04 04:30:00,27.1,17.3,30.28,SSW,206,7.0,7.0,66,0.00,,,0.00,VWS V14.01,2013-04-04 08:30:00,
2013-04-04 04:35:00,27.3,17.5,30.28,South,182,2.0,8.0,66,0.00,,,0.00,VWS V14.01,2013-04-04 08:35:00,
2013-04-04 04:40:00,27.4,17.2,30.28,South,188,5.0,8.0,65,0.00,,,0.00,VWS V14.01,2013-04-04 08:40:00,
2013-04-04 04:45:00,27.5,17.3,30.28,South,188,5.0,8.0,65,0.00,,,0.00,VWS V14.01,2013-04-04 08:45:00,
2013-04-04 04:50:00,27.7,17.1,30.28,South,188,0.0,8.0,64,0.00,,,0.00,VWS V14.01,2013-04-04 08:50:00,
2013-04-04 04:55:00,27.7,17.1,30.28,South,189,0.0,8.0,64,0.00,,,0.00,VWS V14.01,2013-04-04 08:55:00,
2013-04-04 05:00:00,27.8,17.2,30.28,South,190,4.0,4.0,64,0.00,,,0.00,VWS V14.01,2013-04-04 09:00:00,
2013-04-04 05:05:00,27.9,17.3,30.28,SSE,150,0.0,7.0,64,0.00,,,0.00,VWS V14.01,2013-04-04 09:05:00,
2013-04-04 05:10:00,27.9,17.3,30.28,SSE,155,5.0,7.0,64,0.00,,,0.00,VWS V14.01,2013-04-04 09:10:00,
2013-04-04 05:15:00,28.0,17.4,30.28,SSE,164,0.0,8.0,64,0.00,,,0.00,VWS V14.01,2013-04-04 09:15:00,
2013-04-04 05:20:00,27.9,17.3,30.27,SSE,164,0.0,8.0,64,0.00,,,0.00,VWS V14.01,2013-04-04 09:20:00,
2013-04-04 05:25:00,27.8,17.2,30.27,SSE,164,0.0,8.0,64,0.00,,,0.00,VWS V14.01,2013-04-04 09:25:00,
2013-04-04 05:30:00,27.7,17.1,30.27,SSE,165,0.0,8.0,64,0.00,,,0.00,VWS V14.01,2013-04-04 09:30:00,
2013-04-04 05:35:00,27.6,17.0,30.27,SSE,165,2.0,8.0,64,0.00,,,0.00,VWS V14.01,2013-04-04 09:35:00,
2013-04-04 05:40:00,27.6,17.4,30.26,SSE,164,1.0,8.0,65,0.00,,,0.00,VWS V14.01,2013-04-04 09:40:00,
2013-04-04 05:45:00,27.5,17.3,30.26,SSE,164,0.0,8.0,65,0.00,,,0.00,VWS V14.01,2013-04-04 09:45:00,
2013-04-04 05:50:00,27.6,17.4,30.26,South,177,2.0,8.0,65,0.00,,,0.00,VWS V14.01,2013-04-04 09:50:00,
2013-04-04 05:55:00,27.6,17.4,30.26,South,177,1.0,8.0,65,0.00,,,0.00,VWS V14.01,2013-04-04 09:55:00,
2013-04-04 06:00:00,27.6,17.4,30.26,SSE,163,1.0,8.0,65,0.00,,,0.00,VWS V14.01,2013-04-04 10:00:00,
2013-04-04 06:05:00,27.6,17.4,30.26,SSE,166,6.0,6.0,65,0.00,,,0.00,VWS V14.01,2013-04-04 10:05:00,
2013-04-04 06:10:00,27.6,17.4,30.25,SSE,162,0.0,7.0,65,0.00,,,0.00,VWS V14.01,2013-04-04 10:10:00,
2013-04-04 06:15:00,27.6,17.4,30.25,SSW,203,4.0,8.0,65,0.00,,,0.00,VWS V14.01,2013-04-04 10:15:00,
2013-04-04 06:20:00,27.6,17.4,30.25,South,190,6.0,8.0,65,0.00,,,0.00,VWS V14.01,2013-04-04 10:20:00,
2013-04-04 06:25:00,27.7,17.5,30.25,South,188,5.0,9.0,65,0.00,,,0.00,VWS V14.01,2013-04-04 10:25:00,
2013-04-04 06:30:00,27.6,17.4,30.25,South,188,0.0,9.0,65,0.00,,,0.00,VWS V14.01,2013-04-04 10:30:00,
2013-04-04 06:35:00,27.6,17.4,30.24,South,189,0.0,9.0,65,0.00,,,0.00,VWS V14.01,2013-04-04 10:35:00,
2013-04-04 06:40:00,27.5,17.3,30.24,SSW,200,2.0,9.0,65,0.00,,,0.00,VWS V14.01,2013-04-04 10:40:00,
2013-04-04 06:45:00,27.5,17.3,30.24,SSW,200,0.0,9.0,65,0.00,,,0.00,VWS V14.01,2013-04-04 10:45:00,
2013-04-04 06:50:00,27.4,17.2,30.24,SSW,199,0.0,9.0,65,0.00,,,0.00,VWS V14.01,2013-04-04 10:50:00,
2013-04-04 06:55:00,27.4,17.5,30.25,SSW,199,2.0,9.0,66,0.00,,,0.00,VWS V14.01,2013-04-04 10:55:00,
2013-04-04 07:00:00,27.3,17.5,30.24,SSW,200,2.0,2.0,66,0.00,,,0.00,VWS V14.01,2013-04-04 11:00:00,
2013-04-04 07:05:00,27.2,17.4,30.24,SSW,200,0.0,4.0,66,0.00,,,0.00,VWS V14.01,2013-04-04 11:05:00,
2013-04-04 07:10:00,27.2,17.4,30.24,SSW,199,1.0,6.0,66,0.00,,,0.00,VWS V14.01,2013-04-04 11:10:00,
2013-04-04 07:15:00,27.2,17.4,30.24,SSW,200,3.0,7.0,66,0.00,,,0.00,VWS V14.01,2013-04-04 11:15:00,
2013-04-04 07:20:00,27.3,17.5,30.24,SSW,201,0.0,7.0,66,0.00,,,0.00,VWS V14.01,2013-04-04 11:20:00,
2013-04-04 07:25:00,27.4,17.5,30.24,SSW,201,0.0,7.0,66,0.00,,,0.00,VWS V14.01,2013-04-04 11:25:00,
2013-04-04 07:30:00,27.4,17.5,30.24,SSW,201,0.0,7.0,66,0.00,,,0.00,VWS V14.01,2013-04-04 11:30:00,
2013-04-04 07:35:00,27.4,17.5,30.24,SSW,201,0.0,7.0,66,0.00,,,0.00,VWS V14.01,2013-04-04 11:35:00,
2013-04-04 07:40:00,27.4,17.5,30.24,SSW,201,0.0,7.0,66,0.00,,,0.00,VWS V14.01,2013-04-04 11:40:00,
2013-04-04 07:45:00,27.5,17.6,30.24,SSW,201,2.0,7.0,66,0.00,,,0.00,VWS V14.01,2013-04-04 11:45:00,
2013-04-04 07:50:00,27.6,17.7,30.24,SSW,201,0.0,7.0,66,0.00,,,0.00,VWS V14.01,2013-04-04 11:50:00,
2013-04-04 07:55:00,27.8,17.9,30.24,SSW,201,0.0,7.0,66,0.00,,,0.00,VWS V14.01,2013-04-04 11:55:00,
2013-04-04 08:00:00,27.9,18.0,30.24,SSW,200,0.0,0.0,66,0.00,,,0.00,VWS V14.01,2013-04-04 12:00:00,
2013-04-04 08:05:00,28.1,17.9,30.24,SSW,201,3.0,6.0,65,0.00,,,0.00,VWS V14.01,2013-04-04 12:05:00,
2013-04-04 08:10:00,28.3,18.1,30.24,SSW,200,4.0,6.0,65,0.00,,,0.00,VWS V14.01,2013-04-04 12:10:00,
2013-04-04 08:15:00,28.7,18.4,30.24,SSW,201,4.0,6.0,65,0.00,,,0.00,VWS V14.01,2013-04-04 12:15:00,
2013-04-04 08:20:00,29.0,18.4,30.24,SSW,200,1.0,6.0,64,0.00,,,0.00,VWS V14.01,2013-04-04 12:20:00,
2013-04-04 08:25:00,29.2,18.2,30.24,SSE,149,2.0,7.0,63,0.00,,,0.00,VWS V14.01,2013-04-04 12:25:00,
2013-04-04 08:30:00,29.6,18.6,30.24,SSW,205,1.0,8.0,63,0.00,,,0.00,VWS V14.01,2013-04-04 12:30:00,
2013-04-04 08:35:00,29.9,18.9,30.24,SSW,205,2.0,8.0,63,0.00,,,0.00,VWS V14.01,2013-04-04 12:35:00,
2013-04-04 08:40:00,30.4,19.0,30.24,SSW,207,5.0,8.0,62,0.00,,,0.00,VWS V14.01,2013-04-04 12:40:00,
2013-04-04 08:45:00,31.0,19.5,30.23,SSW,209,5.0,8.0,62,0.00,,,0.00,VWS V14.01,2013-04-04 12:45:00,
2013-04-04 08:50:00,31.3,19.4,30.23,SSW,208,0.0,8.0,61,0.00,,,0.00,VWS V14.01,2013-04-04 12:50:00,
2013-04-04 08:55:00,31.6,19.3,30.23,SSW,207,1.0,8.0,60,0.00,,,0.00,VWS V14.01,2013-04-04 12:55:00,
2013-04-04 09:00:00,31.9,19.6,30.23,SSW,203,5.0,6.0,60,0.00,,,0.00,VWS V14.01,2013-04-04 13:00:00,
2013-04-04 09:05:00,32.3,20.0,30.23,SSW,202,7.0,8.0,60,0.00,,,0.00,VWS V14.01,2013-04-04 13:05:00,
2013-04-04 09:10:00,32.9,20.2,30.22,SSW,199,0.0,8.0,59,0.00,,,0.00,VWS V14.01,2013-04-04 13:10:00,
2013-04-04 09:15:00,33.2,19.6,30.22,SSW,200,4.0,8.0,57,0.00,,,0.00,VWS V14.01,2013-04-04 13:15:00,
2013-04-04 09:20:00,33.6,20.4,30.21,SSW,202,5.0,8.0,58,0.00,,,0.00,VWS V14.01,2013-04-04 13:20:00,
2013-04-04 09:25:00,34.3,20.2,30.21,SSW,203,0.0,8.0,56,0.00,,,0.00,VWS V14.01,2013-04-04 13:25:00,
2013-04-04 09:30:00,34.7,20.2,30.20,SSE,155,5.0,8.0,55,0.00,,,0.00,VWS V14.01,2013-04-04 13:30:00,
2013-04-04 09:35:00,35.2,20.7,30.20,SSE,159,8.0,9.0,55,0.00,,,0.00,VWS V14.01,2013-04-04 13:35:00,
2013-04-04 09:40:00,35.5,20.5,30.20,SSE,165,3.0,9.0,54,0.00,,,0.00,VWS V14.01,2013-04-04 13:40:00,
2013-04-04 09:45:00,35.9,20.0,30.19,SSE,155,5.0,9.0,52,0.00,,,0.00,VWS V14.01,2013-04-04 13:45:00,
2013-04-04 09:50:00,36.2,20.3,30.19,SSE,155,4.0,9.0,52,0.00,,,0.00,VWS V14.01,2013-04-04 13:50:00,
2013-04-04 09:55:00,36.6,20.2,30.19,SSE,147,4.0,9.0,51,0.00,,,0.00,VWS V14.01,2013-04-04 13:55:00,
2013-04-04 10:00:00,36.8,19.9,30.19,SSW,206,4.0,5.0,50,0.00,,,0.00,VWS V14.01,2013-04-04 14:00:00,
2013-04-04 10:05:00,37.1,20.7,30.18,SW,216,1.0,9.0,51,0.00,,,0.00,VWS V14.01,2013-04-04 14:05:00,
2013-04-04 10:10:00,37.8,20.8,30.18,SSW,192,1.0,9.0,50,0.00,,,0.00,VWS V14.01,2013-04-04 14:10:00,
2013-04-04 10:15:00,38.7,20.7,30.17,SSW,207,6.0,9.0,48,0.00,,,0.00,VWS V14.01,2013-04-04 14:15:00,
2013-04-04 10:20:00,39.0,21.5,30.17,SSW,202,0.0,9.0,49,0.00,,,0.00,VWS V14.01,2013-04-04 14:20:00,
2013-04-04 10:25:00,39.2,20.7,30.17,SSW,202,3.0,9.0,47,0.00,,,0.00,VWS V14.01,2013-04-04 14:25:00,
2013-04-04 10:30:00,39.6,22.0,30.17,SSW,200,2.0,9.0,49,0.00,,,0.00,VWS V14.01,2013-04-04 14:30:00,
2013-04-04 10:35:00,39.8,21.7,30.17,SSE,155,4.0,9.0,48,0.00,,,0.00,VWS V14.01,2013-04-04 14:35:00,
2013-04-04 10:40:00,40.0,21.4,30.16,SE,137,2.0,9.0,47,0.00,,,0.00,VWS V14.01,2013-04-04 14:40:00,
2013-04-04 10:45:00,40.5,22.4,30.16,SSW,205,6.0,9.0,48,0.00,,,0.00,VWS V14.01,2013-04-04 14:45:00,
2013-04-04 10:50:00,40.9,21.7,30.16,South,170,5.0,9.0,46,0.00,,,0.00,VWS V14.01,2013-04-04 14:50:00,
2013-04-04 10:55:00,41.5,22.3,30.16,South,171,0.0,9.0,46,0.00,,,0.00,VWS V14.01,2013-04-04 14:55:00,
2013-04-04 11:00:00,41.9,22.1,30.16,SE,145,9.0,9.0,45,0.00,,,0.00,VWS V14.01,2013-04-04 15:00:00,
2013-04-04 11:05:00,41.6,21.3,30.16,SE,144,6.0,10.0,44,0.00,,,0.00,VWS V14.01,2013-04-04 15:05:00,
2013-04-04 11:10:00,42.0,22.2,30.16,SE,140,1.0,10.0,45,0.00,,,0.00,VWS V14.01,2013-04-04 15:10:00,
2013-04-04 11:15:00,42.5,21.6,30.16,SE,143,4.0,10.0,43,0.00,,,0.00,VWS V14.01,2013-04-04 15:15:00,
2013-04-04 11:20:00,42.7,21.8,30.16,SE,144,6.0,10.0,43,0.00,,,0.00,VWS V14.01,2013-04-04 15:20:00,
2013-04-04 11:25:00,42.7,21.2,30.15,SE,144,4.0,11.0,42,0.00,,,0.00,VWS V14.01,2013-04-04 15:25:00,
2013-04-04 11:30:00,43.2,22.2,30.15,SSE,165,2.0,11.0,43,0.00,,,0.00,VWS V14.01,2013-04-04 15:30:00,
2013-04-04 11:35:00,43.4,21.9,30.15,SSE,157,5.0,11.0,42,0.00,,,0.00,VWS V14.01,2013-04-04 15:35:00,
2013-04-04 11:40:00,43.8,22.2,30.14,South,178,4.0,12.0,42,0.00,,,0.00,VWS V14.01,2013-04-04 15:40:00,
2013-04-04 11:45:00,44.0,22.4,30.14,SSE,160,4.0,12.0,42,0.00,,,0.00,VWS V14.01,2013-04-04 15:45:00,
2013-04-04 11:50:00,44.5,22.3,30.13,SSE,159,8.0,12.0,41,0.00,,,0.00,VWS V14.01,2013-04-04 15:50:00,
2013-04-04 11:55:00,44.7,22.5,30.13,SSW,192,6.0,12.0,41,0.00,,,0.00,VWS V14.01,2013-04-04 15:55:00,
2013-04-04 12:00:00,44.7,21.9,30.13,SSE,167,4.0,5.0,40,0.00,,,0.00,VWS V14.01,2013-04-04 16:00:00,
2013-04-04 12:05:00,44.8,21.4,30.13,SSE,154,8.0,9.0,39,0.00,,,0.00,VWS V14.01,2013-04-04 16:05:00,
2013-04-04 12:10:00,44.9,22.6,30.13,South,184,2.0,9.0,41,0.00,,,0.00,VWS V14.01,2013-04-04 16:10:00,
2013-04-04 12:15:00,45.1,21.6,30.12,SSW,202,7.0,11.0,39,0.00,,,0.00,VWS V14.01,2013-04-04 16:15:00,
2013-04-04 12:20:00,45.1,23.4,30.12,West,260,0.0,11.0,42,0.00,,,0.00,VWS V14.01,2013-04-04 16:20:00,
2013-04-04 12:25:00,46.1,23.7,30.12,SSW,202,6.0,11.0,41,0.00,,,0.00,VWS V14.01,2013-04-04 16:25:00,
2013-04-04 12:30:00,46.8,24.4,30.11,SSE,166,6.0,11.0,41,0.00,,,0.00,VWS V14.01,2013-04-04 16:30:00,
2013-04-04 12:35:00,46.8,23.8,30.11,SSE,157,5.0,11.0,40,0.00,,,0.00,VWS V14.01,2013-04-04 16:35:00,
2013-04-04 12:40:00,46.8,23.2,30.11,SE,134,4.0,11.0,39,0.00,,,0.00,VWS V14.01,2013-04-04 16:40:00,
2013-04-04 12:45:00,47.1,24.0,30.10,SE,146,6.0,11.0,40,0.00,,,0.00,VWS V14.01,2013-04-04 16:45:00,
2013-04-04 12:50:00,47.0,23.3,30.10,SSE,155,5.0,11.0,39,0.00,,,0.00,VWS V14.01,2013-04-04 16:50:00,
2013-04-04 12:55:00,47.7,23.4,30.09,SSE,155,7.0,11.0,38,0.00,,,0.00,VWS V14.01,2013-04-04 16:55:00,
2013-04-04 13:00:00,47.7,23.4,30.09,South,183,3.0,11.0,38,0.00,,,0.00,VWS V14.01,2013-04-04 17:00:00,
2013-04-04 13:01:00,47.8,23.4,30.09,South,182,0.0,3.0,38,0.00,,,0.00,VWS V14.01,2013-04-04 17:01:00,
2013-04-04 13:06:00,48.2,23.2,30.09,SSW,211,5.0,9.0,37,0.00,,,0.00,VWS V14.01,2013-04-04 17:06:00,
2013-04-04 13:11:00,47.8,22.2,30.09,ESE,113,5.0,13.0,36,0.00,,,0.00,VWS V14.01,2013-04-04 17:11:00,
2013-04-04 13:16:00,47.3,23.0,30.08,SSE,151,5.0,13.0,38,0.00,,,0.00,VWS V14.01,2013-04-04 17:16:00,
2013-04-04 13:21:00,47.6,23.3,30.08,SSW,211,6.0,13.0,38,0.00,,,0.00,VWS V14.01,2013-04-04 17:21:00,
2013-04-04 13:26:00,48.2,23.2,30.07,South,182,6.0,14.0,37,0.00,,,0.00,VWS V14.01,2013-04-04 17:26:00,
2013-04-04 13:30:00,48.4,25.2,30.07,SSW,205,11.0,14.0,40,0.00,,,0.00,VWS V14.01,2013-04-04 17:30:00,
2013-04-04 13:35:00,48.6,23.5,30.06,SE,135,4.0,14.0,37,0.00,,,0.00,VWS V14.01,2013-04-04 17:35:00,
2013-04-04 13:41:00,48.8,24.3,30.06,SW,219,7.0,14.0,38,0.00,,,0.00,VWS V14.01,2013-04-04 17:41:00,
2013-04-04 13:46:00,49.3,22.8,30.06,SSW,199,7.0,14.0,35,0.00,,,0.00,VWS V14.01,2013-04-04 17:46:00,
2013-04-04 13:51:00,49.4,24.9,30.06,WSW,245,4.0,14.0,38,0.00,,,0.00,VWS V14.01,2013-04-04 17:51:00,
2013-04-04 13:56:00,50.3,25.0,30.05,SW,221,0.0,14.0,37,0.00,,,0.00,VWS V14.01,2013-04-04 17:56:00,
2013-04-04 14:00:00,50.9,24.2,30.05,WSW,258,7.0,14.0,35,0.00,,,0.00,VWS V14.01,2013-04-04 18:00:00,
2013-04-04 14:01:00,51.0,25.0,30.05,West,268,5.0,9.0,36,0.00,,,0.00,VWS V14.01,2013-04-04 18:01:00,
2013-04-04 14:06:00,50.9,24.2,30.05,WSW,252,1.0,9.0,35,0.00,,,0.00,VWS V14.01,2013-04-04 18:06:00,
2013-04-04 14:11:00,51.3,24.6,30.04,West,279,1.0,9.0,35,0.00,,,0.00,VWS V14.01,2013-04-04 18:11:00,
2013-04-04 14:16:00,52.0,24.5,30.04,WSW,252,8.0,9.0,34,0.00,,,0.00,VWS V14.01,2013-04-04 18:16:00,
2013-04-04 14:21:00,52.4,25.6,30.03,SSW,213,3.0,9.0,35,0.00,,,0.00,VWS V14.01,2013-04-04 18:21:00,
2013-04-04 14:26:00,52.5,25.7,30.03,SSE,165,4.0,10.0,35,0.00,,,0.00,VWS V14.01,2013-04-04 18:26:00,
2013-04-04 14:31:00,52.0,25.2,30.03,SSW,204,6.0,11.0,35,0.00,,,0.00,VWS V14.01,2013-04-04 18:31:00,
2013-04-04 14:36:00,52.8,25.2,30.03,WSW,244,0.0,11.0,34,0.00,,,0.00,VWS V14.01,2013-04-04 18:36:00,
2013-04-04 14:41:00,53.3,25.0,30.02,SW,232,0.0,11.0,33,0.00,,,0.00,VWS V14.01,2013-04-04 18:41:00,
2013-04-04 14:46:00,53.5,25.1,30.02,South,191,6.0,14.0,33,0.00,,,0.00,VWS V14.01,2013-04-04 18:46:00,
2013-04-04 14:51:00,52.4,24.2,30.02,SSE,152,6.0,14.0,33,0.00,,,0.00,VWS V14.01,2013-04-04 18:51:00,
2013-04-04 14:56:00,52.8,25.2,30.02,West,276,3.0,14.0,34,0.00,,,0.00,VWS V14.01,2013-04-04 18:56:00,
2013-04-04 15:00:00,53.5,26.5,30.02,West,269,7.0,14.0,35,0.00,,,0.00,VWS V14.01,2013-04-04 19:00:00,
2013-04-04 15:01:00,53.7,25.3,30.01,SW,229,7.0,8.0,33,0.00,,,0.00,VWS V14.01,2013-04-04 19:01:00,
2013-04-04 15:06:00,53.8,25.4,30.01,West,271,9.0,13.0,33,0.00,,,0.00,VWS V14.01,2013-04-04 19:06:00,
2013-04-04 15:11:00,53.5,25.1,30.01,WSW,246,8.0,13.0,33,0.00,,,0.00,VWS V14.01,2013-04-04 19:11:00,
2013-04-04 15:16:00,53.3,24.2,30.01,NW,312,6.0,13.0,32,0.00,,,0.00,VWS V14.01,2013-04-04 19:16:00,
2013-04-04 15:21:00,53.3,25.0,30.00,SSW,195,5.0,13.0,33,0.00,,,0.00,VWS V14.01,2013-04-04 19:21:00,
2013-04-04 15:26:00,53.7,25.3,30.00,WSW,240,2.0,13.0,33,0.00,,,0.00,VWS V14.01,2013-04-04 19:26:00,
2013-04-04 15:32:00,54.3,25.8,30.00,WSW,256,7.0,13.0,33,0.00,,,0.00,VWS V14.01,2013-04-04 19:32:00,
2013-04-04 15:37:00,54.0,24.1,30.00,SSE,152,2.0,13.0,31,0.00,,,0.00,VWS V14.01,2013-04-04 19:37:00,
2013-04-04 15:42:00,54.1,27.1,29.99,West,260,7.0,13.0,35,0.00,,,0.00,VWS V14.01,2013-04-04 19:42:00,
2013-04-04 15:47:00,54.6,26.8,29.99,West,263,6.0,13.0,34,0.00,,,0.00,VWS V14.01,2013-04-04 19:47:00,
2013-04-04 15:52:00,54.8,25.5,29.99,West,265,6.0,13.0,32,0.00,,,0.00,VWS V14.01,2013-04-04 19:52:00,
2013-04-04 15:57:00,54.9,25.6,29.99,WSW,242,7.0,13.0,32,0.00,,,0.00,VWS V14.01,2013-04-04 19:57:00,
2013-04-04 16:00:00,54.8,26.3,29.98,WSW,248,7.0,13.0,33,0.00,,,0.00,VWS V14.01,2013-04-04 20:00:00,
2013-04-04 16:02:00,54.7,24.7,29.98,SSW,198,4.0,13.0,31,0.00,,,0.00,VWS V14.01,2013-04-04 20:02:00,
2013-04-04 16:07:00,55.0,26.5,29.98,WSW,248,7.0,13.0,33,0.00,,,0.00,VWS V14.01,2013-04-04 20:07:00,
2013-04-04 16:12:00,55.1,25.8,29.98,SSW,195,4.0,13.0,32,0.00,,,0.00,VWS V14.01,2013-04-04 20:12:00,
2013-04-04 16:17:00,54.4,23.6,29.97,SW,232,10.0,13.0,30,0.00,,,0.00,VWS V14.01,2013-04-04 20:17:00,
2013-04-04 16:22:00,54.1,26.4,29.97,WSW,248,10.0,13.0,34,0.00,,,0.00,VWS V14.01,2013-04-04 20:22:00,
2013-04-04 16:27:00,54.4,25.9,29.97,SSW,192,7.0,13.0,33,0.00,,,0.00,VWS V14.01,2013-04-04 20:27:00,
2013-04-04 16:32:00,54.6,25.4,29.97,South,186,6.0,13.0,32,0.00,,,0.00,VWS V14.01,2013-04-04 20:32:00,
2013-04-04 16:37:00,54.7,24.7,29.96,SW,221,5.0,13.0,31,0.00,,,0.00,VWS V14.01,2013-04-04 20:37:00,
2013-04-04 16:42:00,54.8,24.8,29.96,SSW,203,6.0,13.0,31,0.00,,,0.00,VWS V14.01,2013-04-04 20:42:00,
2013-04-04 16:47:00,55.1,25.8,29.95,SSW,209,6.0,13.0,32,0.00,,,0.00,VWS V14.01,2013-04-04 20:47:00,
2013-04-04 16:52:00,54.9,25.6,29.95,SSW,200,6.0,13.0,32,0.00,,,0.00,VWS V14.01,2013-04-04 20:52:00,
2013-04-04 16:57:00,55.3,26.0,29.95,WNW,292,5.0,13.0,32,0.00,,,0.00,VWS V14.01,2013-04-04 20:57:00,
2013-04-04 17:00:00,55.7,25.5,29.95,SSW,209,5.0,13.0,31,0.00,,,0.00,VWS V14.01,2013-04-04 21:00:00,
2013-04-04 17:02:00,55.8,25.6,29.94,SSW,211,7.0,9.0,31,0.00,,,0.00,VWS V14.01,2013-04-04 21:02:00,
2013-04-04 17:07:00,55.6,24.7,29.94,South,190,4.0,12.0,30,0.00,,,0.00,VWS V14.01,2013-04-04 21:07:00,
2013-04-04 17:12:00,55.7,24.8,29.94,SSW,207,6.0,12.0,30,0.00,,,0.00,VWS V14.01,2013-04-04 21:12:00,
2013-04-04 17:17:00,56.3,26.1,29.94,SW,215,1.0,12.0,31,0.00,,,0.00,VWS V14.01,2013-04-04 21:17:00,
2013-04-04 17:22:00,56.3,26.1,29.94,NW,317,7.0,12.0,31,0.00,,,0.00,VWS V14.01,2013-04-04 21:22:00,
2013-04-04 17:27:00,56.5,26.2,29.94,SW,227,1.0,12.0,31,0.00,,,0.00,VWS V14.01,2013-04-04 21:27:00,
2013-04-04 17:32:00,56.5,25.5,29.93,SW,230,2.0,12.0,30,0.00,,,0.00,VWS V14.01,2013-04-04 21:32:00,
2013-04-04 17:37:00,55.9,24.1,29.93,SW,221,4.0,12.0,29,0.00,,,0.00,VWS V14.01,2013-04-04 21:37:00,
2013-04-04 17:42:00,55.7,24.8,29.93,WSW,245,5.0,12.0,30,0.00,,,0.00,VWS V14.01,2013-04-04 21:42:00,
2013-04-04 17:47:00,55.5,23.8,29.93,SSW,200,7.0,13.0,29,0.00,,,0.00,VWS V14.01,2013-04-04 21:47:00,
2013-04-04 17:52:00,55.3,24.4,29.93,WSW,253,9.0,13.0,30,0.00,,,0.00,VWS V14.01,2013-04-04 21:52:00,
2013-04-04 17:57:00,55.6,25.5,29.93,West,271,3.0,13.0,31,0.00,,,0.00,VWS V14.01,2013-04-04 21:57:00,
2013-04-04 18:00:00,55.7,24.8,29.93,West,273,9.0,13.0,30,0.00,,,0.00,VWS V14.01,2013-04-04 22:00:00,
2013-04-04 18:02:00,55.6,24.7,29.93,West,263,4.0,11.0,30,0.00,,,0.00,VWS V14.01,2013-04-04 22:02:00,
2013-04-04 18:07:00,55.6,24.7,29.93,SW,229,1.0,11.0,30,0.00,,,0.00,VWS V14.01,2013-04-04 22:07:00,
2013-04-04 18:12:00,55.7,24.0,29.93,West,260,7.0,12.0,29,0.00,,,0.00,VWS V14.01,2013-04-04 22:12:00,
2013-04-04 18:17:00,55.7,24.8,29.93,WSW,238,8.0,12.0,30,0.00,,,0.00,VWS V14.01,2013-04-04 22:17:00,
2013-04-04 18:22:00,55.7,26.3,29.93,SW,221,6.0,12.0,32,0.00,,,0.00,VWS V14.01,2013-04-04 22:22:00,
2013-04-04 18:27:00,55.7,24.8,29.93,South,178,4.0,12.0,30,0.00,,,0.00,VWS V14.01,2013-04-04 22:27:00,
2013-04-04 18:32:00,55.6,25.5,29.93,WSW,246,2.0,12.0,31,0.00,,,0.00,VWS V14.01,2013-04-04 22:32:00,
2013-04-04 18:37:00,55.8,24.9,29.93,SSW,210,4.0,12.0,30,0.00,,,0.00,VWS V14.01,2013-04-04 22:37:00,
2013-04-04 18:42:00,55.9,25.7,29.93,SW,219,3.0,12.0,31,0.00,,,0.00,VWS V14.01,2013-04-04 22:42:00,
2013-04-04 18:47:00,55.8,24.9,29.93,SW,232,5.0,12.0,30,0.00,,,0.00,VWS V14.01,2013-04-04 22:47:00,
2013-04-04 18:52:00,55.6,24.7,29.93,WSW,258,10.0,12.0,30,0.00,,,0.00,VWS V14.01,2013-04-04 22:52:00,
2013-04-04 18:57:00,55.4,24.5,29.93,WSW,249,3.0,12.0,30,0.00,,,0.00,VWS V14.01,2013-04-04 22:57:00,
2013-04-04 19:00:00,55.3,24.4,29.93,West,267,6.0,12.0,30,0.00,,,0.00,VWS V14.01,2013-04-04 23:00:00,
2013-04-04 19:02:00,55.2,25.1,29.93,WSW,244,5.0,6.0,31,0.00,,,0.00,VWS V14.01,2013-04-04 23:02:00,
2013-04-04 19:07:00,55.0,24.9,29.93,SSW,207,5.0,10.0,31,0.00,,,0.00,VWS V14.01,2013-04-04 23:07:00,
2013-04-04 19:13:00,54.8,25.5,29.93,WSW,258,4.0,11.0,32,0.00,,,0.00,VWS V14.01,2013-04-04 23:13:00,
2013-04-04 19:18:00,54.5,25.3,29.93,WSW,251,5.0,11.0,32,0.00,,,0.00,VWS V14.01,2013-04-04 23:18:00,
2013-04-04 19:23:00,54.3,25.1,29.93,WSW,257,3.0,11.0,32,0.00,,,0.00,VWS V14.01,2013-04-04 23:23:00,
2013-04-04 19:28:00,53.9,25.5,29.93,WSW,245,2.0,11.0,33,0.00,,,0.00,VWS V14.01,2013-04-04 23:28:00,
2013-04-04 19:33:00,53.6,25.2,29.93,West,268,1.0,11.0,33,0.00,,,0.00,VWS V14.01,2013-04-04 23:33:00,
2013-04-04 19:38:00,53.3,25.0,29.93,WSW,246,2.0,11.0,33,0.00,,,0.00,VWS V14.01,2013-04-04 23:38:00,
2013-04-04 19:43:00,52.9,25.3,29.93,WSW,244,2.0,11.0,34,0.00,,,0.00,VWS V14.01,2013-04-04 23:43:00,
2013-04-04 19:47:00,52.4,24.9,29.93,West,259,0.0,11.0,34,0.00,,,0.00,VWS V14.01,2013-04-04 23:47:00,
2013-04-04 19:52:00,52.0,25.2,29.93,WSW,250,4.0,11.0,35,0.00,,,0.00,VWS V14.01,2013-04-04 23:52:00,
2013-04-04 19:57:00,51.6,24.9,29.93,West,272,2.0,11.0,35,0.00,,,0.00,VWS V14.01,2013-04-04 23:57:00,
2013-04-04 20:00:00,51.4,25.4,29.92,West,271,1.0,11.0,36,0.00,,,0.00,VWS V14.01,2013-04-05 00:00:00,
2013-04-04 20:02:00,51.2,24.5,29.92,West,269,0.0,6.0,35,0.00,,,0.00,VWS V14.01,2013-04-05 00:02:00,
2013-04-04 20:07:00,50.8,24.8,29.92,WSW,257,0.0,8.0,36,0.00,,,0.00,VWS V14.01,2013-04-05 00:07:00,
2013-04-04 20:12:00,50.4,24.5,29.92,WSW,256,0.0,8.0,36,0.00,,,0.00,VWS V14.01,2013-04-05 00:12:00,
2013-04-04 20:17:00,49.9,24.0,29.92,WSW,257,0.0,8.0,36,0.00,,,0.00,VWS V14.01,2013-04-05 00:17:00,
2013-04-04 20:22:00,49.5,24.3,29.92,WSW,257,0.0,8.0,37,0.00,,,0.00,VWS V14.01,2013-04-05 00:22:00,
2013-04-04 20:27:00,49.1,24.0,29.92,WSW,256,0.0,8.0,37,0.00,,,0.00,VWS V14.01,2013-04-05 00:27:00,
2013-04-04 20:32:00,48.7,23.6,29.92,WSW,256,0.0,8.0,37,0.00,,,0.00,VWS V14.01,2013-04-05 00:32:00,
2013-04-04 20:37:00,48.4,23.3,29.92,WSW,257,0.0,8.0,37,0.00,,,0.00,VWS V14.01,2013-04-05 00:37:00,
2013-04-04 20:42:00,48.0,23.6,29.92,WSW,257,0.0,8.0,38,0.00,,,0.00,VWS V14.01,2013-04-05 00:42:00,
2013-04-04 20:47:00,47.6,23.3,29.92,WSW,257,0.0,8.0,38,0.00,,,0.00,VWS V14.01,2013-04-05 00:47:00,
2013-04-04 20:52:00,47.2,23.5,29.93,WSW,257,0.0,8.0,39,0.00,,,0.00,VWS V14.01,2013-04-05 00:52:00,
2013-04-04 20:57:00,46.9,23.3,29.93,WSW,256,0.0,8.0,39,0.00,,,0.00,VWS V14.01,2013-04-05 00:57:00,
2013-04-04 21:00:00,46.7,23.1,29.93,WSW,256,0.0,8.0,39,0.00,,,0.00,VWS V14.01,2013-04-05 01:00:00,
2013-04-04 21:02:00,46.7,23.7,29.92,WSW,256,0.0,0.0,40,0.00,,,0.00,VWS V14.01,2013-04-05 01:02:00,
2013-04-04 21:07:00,46.5,23.5,29.92,WSW,256,0.0,0.0,40,0.00,,,0.00,VWS V14.01,2013-04-05 01:07:00,
2013-04-04 21:12:00,46.2,23.8,29.93,WSW,256,0.0,0.0,41,0.00,,,0.00,VWS V14.01,2013-04-05 01:12:00,
2013-04-04 21:17:00,45.9,23.5,29.93,WSW,257,0.0,0.0,41,0.00,,,0.00,VWS V14.01,2013-04-05 01:17:00,
2013-04-04 21:22:00,45.6,23.9,29.93,WSW,257,0.0,0.0,42,0.00,,,0.00,VWS V14.01,2013-04-05 01:22:00,
2013-04-04 21:27:00,45.2,23.5,29.93,WSW,257,0.0,0.0,42,0.00,,,0.00,VWS V14.01,2013-04-05 01:27:00,
2013-04-04 21:32:00,44.8,23.7,29.93,WSW,256,0.0,0.0,43,0.00,,,0.00,VWS V14.01,2013-04-05 01:32:00,
2013-04-04 21:37:00,44.2,23.7,29.93,WSW,257,0.0,0.0,44,0.00,,,0.00,VWS V14.01,2013-04-05 01:37:00,
2013-04-04 21:42:00,43.8,23.9,29.93,WSW,257,0.0,0.0,45,0.00,,,0.00,VWS V14.01,2013-04-05 01:42:00,
2013-04-04 21:47:00,43.2,23.3,29.93,WSW,256,0.0,0.0,45,0.00,,,0.00,VWS V14.01,2013-04-05 01:47:00,
2013-04-04 21:53:00,42.9,23.6,29.93,WSW,257,0.0,1.0,46,0.00,,,0.00,VWS V14.01,2013-04-05 01:53:00,
2013-04-04 21:58:00,42.6,23.8,29.93,WSW,257,0.0,1.0,47,0.00,,,0.00,VWS V14.01,2013-04-05 01:58:00,
2013-04-04 22:00:00,42.5,23.7,29.93,WSW,256,0.0,1.0,47,0.00,,,0.00,VWS V14.01,2013-04-05 02:00:00,
2013-04-04 22:03:00,42.4,24.1,29.93,WSW,256,0.0,0.0,48,0.00,,,0.00,VWS V14.01,2013-04-05 02:03:00,
2013-04-04 22:08:00,42.2,23.9,29.93,WSW,257,0.0,1.0,48,0.00,,,0.00,VWS V14.01,2013-04-05 02:08:00,
2013-04-04 22:13:00,41.9,23.7,29.93,WSW,257,0.0,1.0,48,0.00,,,0.00,VWS V14.01,2013-04-05 02:13:00,
2013-04-04 22:18:00,41.7,24.0,29.93,WSW,257,0.0,1.0,49,0.00,,,0.00,VWS V14.01,2013-04-05 02:18:00,
2013-04-04 22:23:00,41.5,23.8,29.93,WSW,257,0.0,1.0,49,0.00,,,0.00,VWS V14.01,2013-04-05 02:23:00,
2013-04-04 22:28:00,41.3,24.1,29.93,WSW,257,0.0,1.0,50,0.00,,,0.00,VWS V14.01,2013-04-05 02:28:00,
2013-04-04 22:33:00,41.0,24.3,29.93,WSW,257,2.0,2.0,51,0.00,,,0.00,VWS V14.01,2013-04-05 02:33:00,
2013-04-04 22:38:00,40.9,23.7,29.93,WSW,256,0.0,2.0,50,0.00,,,0.00,VWS V14.01,2013-04-05 02:38:00,
2013-04-04 22:43:00,40.9,24.2,29.93,WSW,257,0.0,2.0,51,0.00,,,0.00,VWS V14.01,2013-04-05 02:43:00,
2013-04-04 22:48:00,40.7,24.9,29.93,WSW,257,0.0,2.0,53,0.00,,,0.00,VWS V14.01,2013-04-05 02:48:00,
2013-04-04 22:53:00,40.5,25.2,29.93,WSW,256,0.0,2.0,54,0.00,,,0.00,VWS V14.01,2013-04-05 02:53:00,
2013-04-04 22:58:00,40.2,25.3,29.93,WSW,256,0.0,2.0,55,0.00,,,0.00,VWS V14.01,2013-04-05 02:58:00,
2013-04-04 23:00:00,40.1,24.8,29.93,WSW,257,0.0,2.0,54,0.00,,,0.00,VWS V14.01,2013-04-05 03:00:00,
2013-04-04 23:03:00,40.0,24.7,29.93,WSW,257,0.0,0.0,54,0.00,,,0.00,VWS V14.01,2013-04-05 03:03:00,
2013-04-04 23:08:00,39.8,24.5,29.92,WSW,257,0.0,0.0,54,0.00,,,0.00,VWS V14.01,2013-04-05 03:08:00,
2013-04-04 23:13:00,39.7,24.4,29.92,WSW,257,0.0,0.0,54,0.00,,,0.00,VWS V14.01,2013-04-05 03:13:00,
2013-04-04 23:18:00,39.7,24.4,29.92,WSW,257,0.0,0.0,54,0.00,,,0.00,VWS V14.01,2013-04-05 03:18:00,
2013-04-04 23:23:00,39.7,24.4,29.92,WSW,256,0.0,0.0,54,0.00,,,0.00,VWS V14.01,2013-04-05 03:23:00,
2013-04-04 23:28:00,39.8,24.5,29.92,WSW,257,0.0,0.0,54,0.00,,,0.00,VWS V14.01,2013-04-05 03:28:00,
2013-04-04 23:33:00,39.9,24.6,29.92,WSW,256,0.0,0.0,54,0.00,,,0.00,VWS V14.01,2013-04-05 03:33:00,
2013-04-04 23:38:00,40.0,25.6,29.92,WSW,257,0.0,0.0,56,0.00,,,0.00,VWS V14.01,2013-04-05 03:38:00,
2013-04-04 23:43:00,40.1,25.2,29.92,WSW,256,0.0,0.0,55,0.00,,,0.00,VWS V14.01,2013-04-05 03:43:00,
2013-04-04 23:48:00,40.2,25.3,29.92,WSW,257,0.0,0.0,55,0.00,,,0.00,VWS V14.01,2013-04-05 03:48:00,
2013-04-04 23:53:00,40.3,25.4,29.92,WSW,257,0.0,0.0,55,0.00,,,0.00,VWS V14.01,2013-04-05 03:53:00,
2013-04-04 23:58:00,40.4,26.8,29.92,WSW,256,0.0,0.0,58,0.00,,,0.00,VWS V14.01,2013-04-05 03:58:00,